P/2021 V2 ( Fuls )

Japanese version
Home page
Updated on November 26, 2022

---------------------------------------------------------------------

* Profile

Discovery Date November 7, 2021
Magnitude 19.7 mag
Discoverer David Carson Fuls (Mt. Lemmon)

* Pictures

* Orbital Elements

Epoch 2022 Aug. 9.0 TT = JDT 2459800.5
T 2023 Jan. 21.43808 TT                                 Rudenko
q   3.4965906            (2000.0)            P               Q
n   0.03621336     Peri.  259.82807     -0.65160551     -0.73836852
a   9.0480887      Node   232.28835     +0.75310865     -0.60228502
e   0.6135548      Incl.   12.69444     +0.09076132     -0.30342162
P  27.2
From 135 observations 2021 Aug. 7-2022 Oct. 2, mean residual 0".3.

* Magnitudes Graph

        m1 = 10.0 + 5 log d + 10.0 log r(t + 150)

---------------------------------------------------------------------

The orbital elements are published on M.P.E.C. 2022-T100.
The magnitudes graphs are made with Comet for Windows.

---------------------------------------------------------------------

Copyright(C) Seiichi Yoshida (comet@aerith.net). All rights reserved.